Time,TemperatureF,DewpointF,PressureIn,WindDirection,WindDirectionDegrees,WindSpeedMPH,WindSpeedGustMPH,Humidity,HourlyPrecipIn,Conditions,Clouds,dailyrainin,SoftwareType,DateUTC
2013-09-10 00:04:00,80.2,74.0,29.82,WSW,253,1.0,4.0,81,0.00,,,0.00,weatherlink.com 1.10,2013-09-10 04:04:00,
2013-09-10 00:19:00,80.3,74.0,29.82,SSE,162,0.0,3.0,81,0.00,,,0.00,weatherlink.com 1.10,2013-09-10 04:19:00,
2013-09-10 00:34:00,80.1,74.0,29.81,WSW,249,0.0,3.0,82,0.00,,,0.00,weatherlink.com 1.10,2013-09-10 04:34:00,
2013-09-10 00:49:00,79.8,74.0,29.81,WSW,256,1.0,3.0,82,0.00,,,0.00,weatherlink.com 1.10,2013-09-10 04:49:00,
2013-09-10 01:04:00,79.6,74.0,29.81,SW,219,1.0,5.0,83,0.00,,,0.00,weatherlink.com 1.10,2013-09-10 05:04:00,
2013-09-10 01:19:00,80.0,74.0,29.81,WNW,301,0.0,6.0,82,0.00,,,0.00,weatherlink.com 1.10,2013-09-10 05:19:00,
2013-09-10 01:34:00,80.0,74.0,29.81,West,264,1.0,5.0,81,0.00,,,0.00,weatherlink.com 1.10,2013-09-10 05:34:00,
2013-09-10 01:49:00,80.0,74.0,29.82,SSE,155,2.0,5.0,81,0.00,,,0.00,weatherlink.com 1.10,2013-09-10 05:49:00,
2013-09-10 02:04:00,80.1,74.0,29.82,NNE,23,0.0,6.0,81,0.00,,,0.00,weatherlink.com 1.10,2013-09-10 06:04:00,
2013-09-10 02:19:00,79.9,74.0,29.82,West,270,0.0,5.0,81,0.00,,,0.00,weatherlink.com 1.10,2013-09-10 06:19:00,
2013-09-10 02:34:00,79.8,74.0,29.82,SE,129,2.0,5.0,81,0.00,,,0.00,weatherlink.com 1.10,2013-09-10 06:34:00,
2013-09-10 02:49:00,80.1,74.0,29.82,SSE,149,0.0,6.0,81,0.00,,,0.00,weatherlink.com 1.10,2013-09-10 06:49:00,
2013-09-10 03:04:00,80.2,74.0,29.83,West,264,1.0,5.0,80,0.00,,,0.00,weatherlink.com 1.10,2013-09-10 07:04:00,
2013-09-10 03:19:00,80.3,74.0,29.83,WSW,245,2.0,4.0,80,0.00,,,0.00,weatherlink.com 1.10,2013-09-10 07:19:00,
2013-09-10 03:34:00,80.7,73.0,29.83,WSW,253,1.0,7.0,78,0.00,,,0.00,weatherlink.com 1.10,2013-09-10 07:34:00,
2013-09-10 03:49:00,81.0,73.0,29.84,WSW,243,2.0,6.0,77,0.00,,,0.00,weatherlink.com 1.10,2013-09-10 07:49:00,
2013-09-10 04:04:00,80.7,73.0,29.84,WNW,289,2.0,6.0,78,0.00,,,0.00,weatherlink.com 1.10,2013-09-10 08:04:00,
2013-09-10 04:19:00,80.5,73.0,29.85,West,264,5.0,7.0,78,0.00,,,0.00,weatherlink.com 1.10,2013-09-10 08:19:00,
2013-09-10 04:34:00,79.6,73.0,29.85,West,259,2.0,3.0,80,0.00,,,0.00,weatherlink.com 1.10,2013-09-10 08:34:00,
2013-09-10 04:49:00,80.0,73.0,29.86,NW,307,2.0,5.0,78,0.00,,,0.00,weatherlink.com 1.10,2013-09-10 08:49:00,
2013-09-10 05:04:00,80.1,72.0,29.86,West,263,1.0,5.0,77,0.00,,,0.00,weatherlink.com 1.10,2013-09-10 09:04:00,
2013-09-10 05:19:00,80.0,72.0,29.86,West,260,1.0,6.0,77,0.00,,,0.00,weatherlink.com 1.10,2013-09-10 09:19:00,
2013-09-10 05:34:00,79.4,72.0,29.87,WNW,290,3.0,4.0,78,0.00,,,0.00,weatherlink.com 1.10,2013-09-10 09:34:00,
2013-09-10 05:49:00,79.3,72.0,29.87,WSW,249,3.0,4.0,78,0.00,,,0.00,weatherlink.com 1.10,2013-09-10 09:49:00,
2013-09-10 06:04:00,79.3,72.0,29.87,NNW,328,1.0,3.0,78,0.00,,,0.00,weatherlink.com 1.10,2013-09-10 10:04:00,
2013-09-10 06:19:00,79.1,72.0,29.87,SW,225,1.0,6.0,78,0.00,,,0.00,weatherlink.com 1.10,2013-09-10 10:19:00,
2013-09-10 06:34:00,78.6,72.0,29.88,SSW,204,0.0,4.0,79,0.00,,,0.00,weatherlink.com 1.10,2013-09-10 10:34:00,
2013-09-10 06:49:00,78.1,72.0,29.88,SSE,152,2.0,4.0,80,0.00,,,0.00,weatherlink.com 1.10,2013-09-10 10:49:00,
2013-09-10 07:04:00,77.7,71.0,29.88,WNW,297,0.0,3.0,80,0.00,,,0.00,weatherlink.com 1.10,2013-09-10 11:04:00,
2013-09-10 07:20:00,77.3,71.0,29.89,SW,227,2.0,4.0,80,0.00,,,0.00,weatherlink.com 1.10,2013-09-10 11:20:00,
2013-09-10 07:35:00,77.1,71.0,29.89,SW,236,2.0,5.0,80,0.00,,,0.00,weatherlink.com 1.10,2013-09-10 11:35:00,
2013-09-10 07:50:00,76.9,71.0,29.90,West,270,2.0,3.0,81,0.00,,,0.00,weatherlink.com 1.10,2013-09-10 11:50:00,
2013-09-10 08:05:00,76.8,71.0,29.90,SW,226,1.0,4.0,81,0.00,,,0.00,weatherlink.com 1.10,2013-09-10 12:05:00,
2013-09-10 08:20:00,77.0,70.0,29.90,WSW,239,0.0,5.0,80,0.00,,,0.00,weatherlink.com 1.10,2013-09-10 12:20:00,
2013-09-10 08:35:00,77.3,71.0,29.90,SSW,204,2.0,4.0,80,0.00,,,0.00,weatherlink.com 1.10,2013-09-10 12:35:00,
2013-09-10 08:50:00,78.0,71.0,29.90,East,101,1.0,7.0,78,0.00,,,0.00,weatherlink.com 1.10,2013-09-10 12:50:00,
2013-09-10 09:05:00,78.6,70.0,29.91,ESE,103,1.0,9.0,76,0.00,,,0.00,weatherlink.com 1.10,2013-09-10 13:05:00,
2013-09-10 09:20:00,79.2,71.0,29.91,WNW,297,3.0,6.0,75,0.00,,,0.00,weatherlink.com 1.10,2013-09-10 13:20:00,
2013-09-10 09:35:00,80.1,71.0,29.91,West,278,2.0,7.0,73,0.00,,,0.00,weatherlink.com 1.10,2013-09-10 13:35:00,
2013-09-10 09:50:00,81.1,70.0,29.92,West,270,1.0,7.0,70,0.00,,,0.00,weatherlink.com 1.10,2013-09-10 13:50:00,
2013-09-10 10:05:00,82.4,70.0,29.92,ESE,115,0.0,9.0,67,0.00,,,0.00,weatherlink.com 1.10,2013-09-10 14:05:00,
2013-09-10 10:20:00,83.5,71.0,29.92,West,261,3.0,6.0,65,0.00,,,0.00,weatherlink.com 1.10,2013-09-10 14:20:00,
2013-09-10 10:35:00,84.6,70.0,29.92,SW,226,2.0,8.0,61,0.00,,,0.00,weatherlink.com 1.10,2013-09-10 14:35:00,
2013-09-10 10:50:00,85.5,68.0,29.93,NW,306,2.0,12.0,57,0.00,,,0.00,weatherlink.com 1.10,2013-09-10 14:50:00,
2013-09-10 11:05:00,86.2,69.0,29.93,West,259,5.0,10.0,56,0.00,,,0.00,weatherlink.com 1.10,2013-09-10 15:05:00,
2013-09-10 11:20:00,86.2,69.0,29.93,West,280,2.0,8.0,56,0.00,,,0.00,weatherlink.com 1.10,2013-09-10 15:20:00,
2013-09-10 11:35:00,86.6,68.0,29.93,SSW,193,1.0,9.0,54,0.00,,,0.00,weatherlink.com 1.10,2013-09-10 15:35:00,
2013-09-10 11:50:00,86.9,68.0,29.93,WSW,245,7.0,9.0,54,0.00,,,0.00,weatherlink.com 1.10,2013-09-10 15:50:00,
2013-09-10 12:05:00,87.4,67.0,29.93,NNW,340,1.0,11.0,50,0.00,,,0.00,weatherlink.com 1.10,2013-09-10 16:05:00,
2013-09-10 12:20:00,87.9,67.0,29.93,North,354,3.0,10.0,50,0.00,,,0.00,weatherlink.com 1.10,2013-09-10 16:20:00,
2013-09-10 12:36:00,88.4,67.0,29.93,WNW,294,4.0,12.0,49,0.00,,,0.00,weatherlink.com 1.10,2013-09-10 16:36:00,
2013-09-10 12:50:00,88.6,67.0,29.93,WNW,297,6.0,12.0,49,0.00,,,0.00,weatherlink.com 1.10,2013-09-10 16:50:00,
2013-09-10 13:06:00,88.9,67.0,29.93,WSW,257,6.0,13.0,49,0.00,,,0.00,weatherlink.com 1.10,2013-09-10 17:06:00,
2013-09-10 13:21:00,89.1,68.0,29.93,WSW,239,5.0,11.0,49,0.00,,,0.00,weatherlink.com 1.10,2013-09-10 17:21:00,
2013-09-10 13:36:00,89.6,68.0,29.93,WSW,249,2.0,8.0,49,0.00,,,0.00,weatherlink.com 1.10,2013-09-10 17:36:00,
2013-09-10 13:51:00,89.5,67.0,29.93,West,262,10.0,11.0,47,0.00,,,0.00,weatherlink.com 1.10,2013-09-10 17:51:00,
2013-09-10 14:06:00,90.2,67.0,29.92,NW,313,11.0,13.0,47,0.00,,,0.00,weatherlink.com 1.10,2013-09-10 18:06:00,
2013-09-10 14:21:00,90.5,66.0,29.92,West,274,7.0,13.0,45,0.00,,,0.00,weatherlink.com 1.10,2013-09-10 18:21:00,
2013-09-10 14:36:00,91.4,67.0,29.92,SW,227,3.0,10.0,45,0.00,,,0.00,weatherlink.com 1.10,2013-09-10 18:36:00,
2013-09-10 14:51:00,92.0,67.0,29.92,SSW,205,7.0,8.0,44,0.00,,,0.00,weatherlink.com 1.10,2013-09-10 18:51:00,
2013-09-10 15:06:00,91.6,67.0,29.92,West,276,1.0,12.0,45,0.00,,,0.00,weatherlink.com 1.10,2013-09-10 19:06:00,
2013-09-10 15:21:00,91.9,68.0,29.91,NW,322,1.0,13.0,45,0.00,,,0.00,weatherlink.com 1.10,2013-09-10 19:21:00,
2013-09-10 15:36:00,91.9,66.0,29.92,SSE,166,6.0,13.0,43,0.00,,,0.00,weatherlink.com 1.10,2013-09-10 19:36:00,
2013-09-10 15:51:00,92.4,67.0,29.92,WNW,290,5.0,8.0,44,0.00,,,0.00,weatherlink.com 1.10,2013-09-10 19:51:00,
2013-09-10 16:06:00,91.9,68.0,29.91,WSW,248,3.0,13.0,45,0.00,,,0.00,weatherlink.com 1.10,2013-09-10 20:06:00,
2013-09-10 16:21:00,91.4,67.0,29.91,WSW,253,4.0,14.0,44,0.00,,,0.00,weatherlink.com 1.10,2013-09-10 20:21:00,
2013-09-10 16:36:00,91.6,67.0,29.91,NW,305,3.0,15.0,44,0.00,,,0.00,weatherlink.com 1.10,2013-09-10 20:36:00,
2013-09-10 16:51:00,91.6,67.0,29.92,WNW,288,5.0,15.0,45,0.00,,,0.00,weatherlink.com 1.10,2013-09-10 20:51:00,
2013-09-10 17:06:00,91.9,68.0,29.91,NW,309,5.0,13.0,45,0.00,,,0.00,weatherlink.com 1.10,2013-09-10 21:06:00,
2013-09-10 17:21:00,91.8,68.0,29.91,West,262,4.0,10.0,45,0.00,,,0.00,weatherlink.com 1.10,2013-09-10 21:21:00,
2013-09-10 17:36:00,91.7,67.0,29.91,WNW,294,6.0,12.0,45,0.00,,,0.00,weatherlink.com 1.10,2013-09-10 21:36:00,
2013-09-10 17:51:00,91.5,66.0,29.91,NNW,329,4.0,13.0,43,0.00,,,0.00,weatherlink.com 1.10,2013-09-10 21:51:00,
2013-09-10 18:06:00,91.3,66.0,29.91,West,273,2.0,11.0,44,0.00,,,0.00,weatherlink.com 1.10,2013-09-10 22:06:00,
2013-09-10 18:21:00,91.2,67.0,29.91,WSW,248,3.0,13.0,45,0.00,,,0.00,weatherlink.com 1.10,2013-09-10 22:21:00,
2013-09-10 18:36:00,90.9,67.0,29.90,NNW,338,4.0,11.0,45,0.00,,,0.00,weatherlink.com 1.10,2013-09-10 22:36:00,
2013-09-10 18:51:00,90.7,67.0,29.90,East,88,1.0,8.0,46,0.00,,,0.00,weatherlink.com 1.10,2013-09-10 22:51:00,
2013-09-10 19:07:00,89.9,67.0,29.90,West,273,0.0,7.0,47,0.00,,,0.00,weatherlink.com 1.10,2013-09-10 23:07:00,
2013-09-10 19:21:00,89.8,67.0,29.90,WNW,287,3.0,5.0,47,0.00,,,0.00,weatherlink.com 1.10,2013-09-10 23:21:00,
2013-09-10 19:36:00,88.8,67.0,29.90,SSW,192,1.0,5.0,49,0.00,,,0.00,weatherlink.com 1.10,2013-09-10 23:36:00,
2013-09-10 19:51:00,87.1,67.0,29.91,West,275,1.0,4.0,51,0.00,,,0.00,weatherlink.com 1.10,2013-09-10 23:51:00,
2013-09-10 20:06:00,85.4,67.0,29.91,West,259,0.0,2.0,54,0.00,,,0.00,weatherlink.com 1.10,2013-09-11 00:06:00,
2013-09-10 20:21:00,84.2,67.0,29.92,SW,214,0.0,3.0,56,0.00,,,0.00,weatherlink.com 1.10,2013-09-11 00:21:00,
2013-09-10 20:36:00,83.2,67.0,29.93,WSW,241,0.0,2.0,58,0.00,,,0.00,weatherlink.com 1.10,2013-09-11 00:36:00,
2013-09-10 20:51:00,82.3,67.0,29.93,SW,221,0.0,3.0,60,0.00,,,0.00,weatherlink.com 1.10,2013-09-11 00:51:00,
2013-09-10 21:06:00,81.7,67.0,29.94,SSW,198,0.0,2.0,61,0.00,,,0.00,weatherlink.com 1.10,2013-09-11 01:06:00,
2013-09-10 21:21:00,81.4,67.0,29.95,WSW,239,1.0,2.0,61,0.00,,,0.00,weatherlink.com 1.10,2013-09-11 01:21:00,
2013-09-10 21:36:00,80.8,67.0,29.95,SW,217,0.0,3.0,63,0.00,,,0.00,weatherlink.com 1.10,2013-09-11 01:36:00,
2013-09-10 21:51:00,80.5,67.0,29.95,SW,214,1.0,4.0,63,0.00,,,0.00,weatherlink.com 1.10,2013-09-11 01:51:00,
2013-09-10 22:06:00,79.9,67.0,29.95,WSW,255,0.0,2.0,64,0.00,,,0.00,weatherlink.com 1.10,2013-09-11 02:06:00,
2013-09-10 22:21:00,79.7,67.0,29.94,South,188,0.0,3.0,65,0.00,,,0.00,weatherlink.com 1.10,2013-09-11 02:21:00,
2013-09-10 22:36:00,79.4,67.0,29.94,SSE,149,0.0,3.0,65,0.00,,,0.00,weatherlink.com 1.10,2013-09-11 02:36:00,
2013-09-10 22:51:00,79.4,67.0,29.94,East,91,0.0,2.0,65,0.00,,,0.00,weatherlink.com 1.10,2013-09-11 02:51:00,
2013-09-10 23:06:00,79.4,67.0,29.93,South,176,0.0,3.0,65,0.00,,,0.00,weatherlink.com 1.10,2013-09-11 03:06:00,
2013-09-10 23:21:00,79.1,67.0,29.93,WSW,252,2.0,3.0,66,0.00,,,0.00,weatherlink.com 1.10,2013-09-11 03:21:00,
2013-09-10 23:36:00,79.0,67.0,29.93,SSE,160,0.0,3.0,66,0.00,,,0.00,weatherlink.com 1.10,2013-09-11 03:36:00,
2013-09-10 23:51:00,79.1,67.0,29.93,SSW,203,2.0,4.0,66,0.00,,,0.00,weatherlink.com 1.10,2013-09-11 03:51:00,